Location: Monfort
(47.1967°N, 0.2115°W)
Time: 10:29:51
(UTC+00:00)

Cosmos 2227 Rocket - Pass Details

Date: 24 October 2020
Orbit: 839 x 845 km, 71.0° (Epoch: 27 November)

Event Time Altitude Azimuth Distance (km) Brightness Sun altitude
Rises 18:04:42 0° 336° (NNW) 3,407 5.6 -12.2°
Reaches altitude 10° 18:07:18 10° 344° (NNW) 2,469 4.8 -12.6°
Maximum altitude 18:12:38 40° 54° (NE) 1,219 2.6 -13.5°
Enters shadow 18:16:50 16° 118° (ESE) 2,088 3.7 -14.2°
